ZSFAV EGPH-EGPG

Flight info

Callsign ZSFAV
Flight time N/A
Altitude 4500
Route GOW30
Aircraft PA28/L-SDGRY/S

Departure

Time 2026-04-26 18:09
Airport Edinburgh Airport (EGPH)

Arrival

Time N/A
Airport Cumbernauld Airport (EGPG)
Time Latitude Longitude Altitude Speed Heading
2026-04-26 17:31 55.94622 -3.36798 101 ft 0 kts 252°
2026-04-26 17:58 55.94622 -3.36806 101 ft 0 kts 273°
2026-04-26 18:01 55.94631 -3.36865 102 ft 8 kts 287°
2026-04-26 18:01 55.94653 -3.36898 103 ft 4 kts 351°
2026-04-26 18:01 55.94666 -3.36900 103 ft 0 kts
2026-04-26 18:02 55.94713 -3.36902 103 ft 12 kts 341°
2026-04-26 18:02 55.94763 -3.36920 104 ft 14 kts 349°
2026-04-26 18:02 55.94790 -3.36927 104 ft 7 kts 18°
2026-04-26 18:02 55.94871 -3.36813 104 ft 19 kts 49°
2026-04-26 18:03 55.94895 -3.36771 104 ft 6 kts 331°
2026-04-26 18:03 55.94910 -3.36927 103 ft 21 kts 250°
2026-04-26 18:03 55.94816 -3.37209 104 ft 24 kts 240°
2026-04-26 18:03 55.94803 -3.37250 104 ft 2 kts 239°
2026-04-26 18:04 55.94778 -3.37323 106 ft 13 kts 238°
2026-04-26 18:04 55.94707 -3.37543 110 ft 28 kts 237°
2026-04-26 18:04 55.94582 -3.37905 111 ft 40 kts 239°
2026-04-26 18:05 55.94374 -3.38522 114 ft 15 kts 237°
2026-04-26 18:05 55.94319 -3.38686 117 ft 15 kts 238°
2026-04-26 18:05 55.94305 -3.38723 117 ft 9 kts 233°
2026-04-26 18:05 55.94291 -3.38762 117 ft 1 kts 238°
2026-04-26 18:06 55.94281 -3.38841 118 ft 10 kts 290°
2026-04-26 18:06 55.94316 -3.38897 119 ft 0 kts 327°
2026-04-26 18:07 55.94319 -3.38900 116 ft 5 kts 327°
2026-04-26 18:08 55.94480 -3.38779 116 ft 30 kts 59°
2026-04-26 18:08 55.94650 -3.38279 117 ft 70 kts 58°
2026-04-26 18:08 55.94941 -3.37431 278 ft 87 kts 59°
2026-04-26 18:08 55.95263 -3.36440 473 ft 97 kts 61°
2026-04-26 18:09 55.95560 -3.35368 768 ft 95 kts 64°
2026-04-26 18:09 55.95843 -3.34280 1021 ft 100 kts 62°
2026-04-26 18:09 55.96267 -3.33252 1246 ft 106 kts 30°
2026-04-26 18:09 55.96967 -3.33079 1478 ft 105 kts 341°
2026-04-26 18:10 55.97538 -3.33835 1694 ft 107 kts 301°
2026-04-26 18:10 55.97853 -3.35030 1957 ft 100 kts 285°
2026-04-26 18:10 55.97993 -3.36154 2293 ft 94 kts 277°
2026-04-26 18:10 55.98132 -3.37327 2532 ft 98 kts 281°
2026-04-26 18:11 55.98281 -3.38570 2688 ft 106 kts 281°
2026-04-26 18:11 55.98495 -3.39816 2899 ft 104 kts 282°
2026-04-26 18:11 55.98681 -3.41060 3206 ft 95 kts 284°
2026-04-26 18:11 55.98857 -3.42178 3506 ft 97 kts 281°
2026-04-26 18:12 55.99050 -3.43311 3793 ft 91 kts 285°
2026-04-26 18:12 55.99285 -3.44404 3965 ft 98 kts 287°
2026-04-26 18:12 55.99473 -3.45588 4037 ft 103 kts 279°
2026-04-26 18:12 55.99627 -3.46925 4025 ft 112 kts 278°
2026-04-26 18:13 55.99755 -3.48298 4085 ft 112 kts 275°
2026-04-26 18:13 55.99873 -3.49692 4127 ft 113 kts 277°
2026-04-26 18:13 56.00028 -3.51070 4184 ft 113 kts 279°
2026-04-26 18:13 56.00135 -3.51985 4215 ft 114 kts 278°
2026-04-26 18:14 56.00299 -3.53868 4310 ft 119 kts 270°
2026-04-26 18:14 56.00372 -3.55308 4470 ft 112 kts 273°
2026-04-26 18:14 56.00452 -3.56729 4419 ft 120 kts 272°
2026-04-26 18:14 56.00498 -3.58248 4430 ft 122 kts 271°
2026-04-26 18:15 56.00515 -3.59772 4329 ft 127 kts 269°
2026-04-26 18:15 56.00553 -3.61294 4377 ft 124 kts 270°
2026-04-26 18:15 56.00572 -3.62855 4277 ft 125 kts 268°
2026-04-26 18:15 56.00530 -3.64399 4142 ft 126 kts 262°
2026-04-26 18:16 56.00406 -3.65916 4076 ft 123 kts 258°
2026-04-26 18:16 55.99783 -3.68772 3914 ft 123 kts 245°
2026-04-26 18:16 55.99461 -3.70150 3917 ft 119 kts 250°
2026-04-26 18:17 55.99272 -3.71590 3862 ft 121 kts 259°
2026-04-26 18:17 55.99159 -3.73042 3717 ft 115 kts 260°
2026-04-26 18:17 55.99103 -3.74493 3519 ft 115 kts 267°
2026-04-26 18:17 55.99140 -3.75896 3404 ft 112 kts 273°
2026-04-26 18:18 55.99269 -3.77244 3305 ft 111 kts 281°
2026-04-26 18:18 55.99569 -3.78556 3134 ft 118 kts 295°
2026-04-26 18:18 56.00019 -3.79783 3062 ft 118 kts 302°
2026-04-26 18:18 56.00508 -3.80965 3036 ft 107 kts 300°
2026-04-26 18:19 56.00819 -3.82028 3135 ft 90 kts 287°
2026-04-26 18:19 56.00994 -3.83119 3109 ft 91 kts 270°
2026-04-26 18:19 56.00896 -3.84198 3090 ft 91 kts 251°
2026-04-26 18:19 56.00681 -3.85338 2962 ft 103 kts 251°
2026-04-26 18:20 56.00430 -3.86546 2898 ft 104 kts 250°
2026-04-26 18:20 56.00114 -3.87777 2688 ft 118 kts 244°
2026-04-26 18:20 55.99743 -3.89049 2645 ft 111 kts 249°
2026-04-26 18:20 55.99589 -3.89916 2517 ft 111 kts 258°
2026-04-26 18:21 55.99418 -3.91746 2196 ft 110 kts 263°
2026-04-26 18:21 55.99319 -3.92986 2112 ft 99 kts 258°
2026-04-26 18:21 55.99222 -3.94225 1931 ft 102 kts 262°
2026-04-26 18:21 55.99165 -3.95477 1795 ft 102 kts 268°
2026-04-26 18:22 55.99125 -3.96663 1660 ft 92 kts 263°
2026-04-26 18:22 55.98993 -3.97772 1390 ft 94 kts 255°
2026-04-26 18:22 55.98836 -3.98876 1231 ft 79 kts 258°
2026-04-26 18:22 55.98750 -3.99766 1123 ft 75 kts 260°
2026-04-26 18:23 55.98633 -4.00686 1120 ft 79 kts 253°
2026-04-26 18:23 55.98477 -4.01699 1047 ft 88 kts 256°
2026-04-26 18:23 55.98310 -4.02671 1114 ft 78 kts 236°
2026-04-26 18:23 55.97982 -4.02871 1184 ft 82 kts 175°